#timestamp,LO_Frequency,Hit,StdDev 
1567803615.0,286047001.2,N
1567803616.0,286047001.2,N
1567803635.8,286047002.6,N
1567803655.6,286046999.8,N
1567803675.5,286047000.1,N
1567803695.3,286046998.2,N
1567803715.1,286046996.6,N
1567803735.9,286046997.1,N
1567803755.7,286046997.2,N
1567803775.6,286046997.8,N
1567803795.4,286046996.7,N
1567803815.2,286046996.8,N
1567803835.1,286046997.3,N
1567803836.0,286046997.3,N
1567803855.8,286046997.1,N
1567803875.6,286046996.8,N
1567803895.5,286046999.3,N
1567803915.3,286046999.1,N
1567803935.2,286046999.1,N
1567803955.9,286046998.2,N
1567803975.7,286046996.6,N
1567803995.6,286046999.0,N
1567804015.4,286046998.8,N
1567804035.2,286046999.1,N
1567804055.1,286046999.9,N
1567804056.0,286046999.9,N
1567804075.8,286046999.8,N
1567804095.7,286047002.3,N
1567804115.5,286047005.9,Y
1567804135.3,286047005.4,P
1567804155.2,286047004.9,N
1567804175.0,286047004.8,N
1567804175.9,286047004.8,N
1567804195.7,286047007.4,N
1567804215.6,286047007.4,N
1567804235.4,286047005.8,N
1567804255.3,286047005.1,N
1567804275.1,286047002.9,N
1567804276.0,286047002.9,N
1567804295.8,286047003.6,N
1567804315.7,286047003.2,N
1567804335.5,286047003.6,N
1567804355.3,286047004.1,N
1567804375.2,286047001.8,N
1567804395.0,286047002.7,N
1567804395.9,286047002.7,N
1567804415.8,286047000.0,N
1567804435.6,286046998.3,N
1567804455.4,286046998.2,N
1567804475.3,286046999.4,N
1567804495.1,286046999.5,N
1567804515.9,286046998.5,N
1567804535.7,286046999.4,N
1567804555.5,286046997.0,N
1567804575.4,286046999.6,N
1567804595.2,286046998.8,N
1567804615.0,286046998.8,N
1567804615.9,286046998.8,N
1567804635.8,286047001.1,N
1567804655.6,286046998.2,N
1567804675.5,286046996.5,N
1567804695.3,286046999.5,N
1567804715.1,286047000.9,N
1567804735.9,286046998.4,N
1567804755.7,286047002.3,N
1567804775.5,286047001.8,N
1567804795.4,286047001.4,N
1567804815.2,286047001.6,N
1567804835.0,286047002.2,N
1567804836.0,286047002.2,N
1567804855.8,286047002.5,N
1567804875.6,286047002.6,N
1567804895.5,286047003.6,N
1567804915.3,286047001.9,N
1567804935.1,286047001.9,N
1567804955.9,286047002.8,N
1567804975.7,286047001.9,N
1567804995.6,286047000.4,N
1567805015.4,286047000.3,N
1567805035.2,286047002.3,N
1567805055.1,286046999.9,N
1567805056.0,286046999.9,N
1567805075.8,286046999.8,N
1567805095.6,286047004.2,N
1567805115.5,286047001.3,N
1567805135.3,286047002.9,N
1567805155.2,286047005.1,N
1567805175.9,286047005.1,N
1567805195.7,286047005.5,N
1567805215.6,286047003.8,N
1567805235.4,286047003.9,N
1567805255.2,286047001.9,N
1567805275.1,286047002.4,N
1567805276.0,286047002.4,N
1567805295.8,286047004.3,N
1567805315.7,286047003.0,N
1567805335.5,286047003.9,N
1567805355.3,286047003.3,N
1567805375.2,286047003.7,N
1567805395.0,286047004.2,N
1567805395.9,286047004.2,N
1567805415.8,286047005.4,Y
1567805435.6,286047000.0,P
1567805455.4,286046999.9,N
1567805475.3,286046999.9,N
1567805495.1,286047002.8,N
1567805515.8,286047000.5,N
1567805535.7,286046999.3,N
1567805555.5,286046997.8,N
1567805575.4,286046995.6,N
1567805595.2,286046996.0,N
1567805615.0,286046995.1,N
1567805615.9,286046995.1,N
1567805635.8,286046995.0,N
1567805655.6,286046997.1,N
1567805675.5,286046997.4,N
1567805695.3,286046999.6,N
1567805715.1,286046999.0,N
1567805735.9,286046998.3,N
1567805755.7,286046999.3,N
1567805775.5,286046999.6,N
1567805795.4,286046999.6,N
1567805815.2,286046998.5,N
1567805835.0,286047000.4,N
1567805836.0,286047000.4,N
1567805855.8,286047000.3,N
1567805875.6,286047000.5,N
1567805895.5,286047000.3,N
1567805915.3,286046999.9,N
1567805935.1,286047000.5,N
1567805955.9,286047000.5,N
1567805975.7,286046999.1,N
1567805995.5,286046997.0,N
1567806015.4,286046999.4,N
1567806035.2,286046996.6,N
1567806055.1,286046998.6,N
1567806056.0,286046998.6,N
1567806075.8,286047000.0,N
1567806095.6,286047000.2,N
1567806115.5,286047000.4,N
1567806135.3,286047002.7,N
1567806155.2,286047002.6,N
1567806175.9,286047002.0,N
1567806195.7,286047003.6,N
1567806215.6,286047004.3,N
1567806235.4,286047004.3,N
1567806255.2,286047001.3,N
1567806275.1,286047001.9,N
1567806276.0,286047001.9,N
1567806295.8,286047000.0,N
1567806315.7,286047000.9,N
1567806335.5,286047000.9,N
1567806355.3,286047001.0,N
1567806375.2,286046999.9,N
1567806395.0,286047002.4,N
1567806395.9,286047002.4,N
1567806415.8,286046999.9,N
1567806435.6,286047000.4,N
1567806455.4,286047000.7,N
1567806475.3,286046999.7,N
1567806495.1,286047000.3,N
1567806515.8,286046998.1,N
1567806535.7,286047000.6,N
1567806555.5,286047002.7,N
1567806575.4,286046999.9,N
1567806595.2,286046999.8,N
1567806615.0,286047002.3,N
1567806615.9,286047002.3,N
1567806635.8,286047001.3,N
1567806655.6,286047004.3,N
1567806675.5,286047005.6,Y
1567806695.3,286047003.5,P
1567806715.1,286047005.8,P
1567806735.9,286047002.9,N
1567806755.7,286047004.1,N
1567806775.5,286047004.1,N
1567806795.4,286047003.9,N
1567806815.2,286047003.9,Y
1567806835.1,286046998.7,P
1567806836.0,286046998.7,N
1567806855.8,286046999.6,N
1567806875.6,286046999.5,N
1567806895.5,286046999.2,N
1567806915.3,286046999.5,N
1567806935.1,286046999.0,N
1567806955.9,286046998.5,N
1567806975.7,286046999.9,N
1567806995.6,286047001.6,N
1567807015.4,286047001.5,N
1567807035.2,286047003.5,N
1567807055.1,286047003.6,N
1567807056.0,286047003.6,N
1567807075.8,286047003.3,N
1567807095.7,286047002.0,N
1567807115.5,286047002.2,N
1567807135.3,286046999.8,N
1567807155.2,286047001.6,N
1567807175.9,286047001.6,N
1567807195.7,286046999.7,N
